Location: Newark
(52.2090°N, 4.1550°W)
Time: 18:28:07
(UTC+00:00)

Transit 4A - Pass Details

Date: 23 October 2019
Orbit: 869 x 976 km, 66.8° (Epoch: 21 November)

Event Time Altitude Azimuth Distance (km) Brightness Sun altitude
Exits shadow 04:32:30 18° 199° (SSW) 2,200 9.6 -22.4°
Maximum altitude 04:37:19 64° 122° (ESE) 1,055 8.3 -21.7°
Drops below altitude 10° 04:43:26 10° 43° (NE) 2,654 11.0 -20.8°
Sets 04:45:57 0° 40° (NE) 3,585 11.7 -20.4°
